DW4821 Weather Reports


Display with metric or nautical units.
time (UTC)temp
F
wind
direction
speed
MPH
gust
MPH
rain 1hr
in
rain 24hr
in
rain mn
in
humidity
%
barometer
mb
20260504050008 52 55 14.0 21.0 0.00 0.00 0.00 41 1005.5
20260504044510 53 53 19.0 30.0 0.00 0.00 0.00 38 1005.3
20260504043006 55 44 18.0 31.0 0.00 0.00 0.00 41 1004.7
20260504041506 55 40 13.0 22.0 0.00 0.00 0.00 39 1004.0
20260504040007 55 17 10.0 15.0 0.00 0.00 0.00 38 1003.5
20260504034506 56 21 10.0 15.0 0.00 0.00 0.00 38 1003.1
20260504033004 56 32 9.0 16.0 0.00 0.00 0.00 39 1002.7
20260504031505 56 25 10.0 18.0 0.00 0.00 0.00 38 1002.6
20260504030004 57 44 11.0 18.0 0.00 0.00 0.00 37 1002.4
20260504024507 58 50 9.0 17.0 0.00 0.00 0.00 35 1002.4
20260504023002 60 42 10.0 15.0 0.00 0.00 0.00 33 1002.1
20260504021502 62 48 9.0 16.0 0.00 0.00 0.00 29 1002.1
20260504020002 64 44 12.0 20.0 0.00 0.00 0.00 27 1002.0
20260504014502 67 21 8.0 12.0 0.00 0.00 0.00 23 1001.9
20260504013104 69 358 9.0 13.0 0.00 0.00 0.00 20 1002.0
20260504011605 70 352 7.0 15.0 0.00 0.00 0.00 19 1002.1
20260504010101 70 328 8.0 17.0 0.00 0.00 0.00 18 1002.1
20260504004557 70 351 9.0 20.0 0.00 0.00 0.00 18 1002.2
20260504003100 70 329 9.0 18.0 0.00 0.00 0.00 18 1002.4
20260504001604 71 334 13.0 22.0 0.00 0.00 0.00 18 1002.5
20260504000054 71 315 13.0 23.0 0.00 0.00 0.00 18 1002.6
20260503234553 71 335 12.0 21.0 0.00 0.00 0.00 17 1002.7
20260503233052 71 320 7.0 19.0 0.00 0.00 0.00 18 1002.7
20260503231551 71 360 11.0 24.0 0.00 0.00 0.00 18 1002.9
20260503230050 71 319 12.0 21.0 0.00 0.00 0.00 18 1002.9
20260503224549 71 335 13.0 24.0 0.00 0.00 0.00 19 1003.1
20260503223046 71 11 12.0 22.0 0.00 0.00 0.00 18 1003.3
20260503221545 71 20 11.0 24.0 0.00 0.00 0.00 19 1003.4
20260503220050 71 300 16.0 25.0 0.00 0.00 0.00 19 1003.5
20260503214541 71 331 11.0 23.0 0.00 0.00 0.00 20 1003.7
20260503213042 71 308 17.0 26.0 0.00 0.00 0.00 20 1003.9
20260503211538 70 330 7.0 26.0 0.00 0.00 0.00 20 1004.1
20260503210038 71 329 10.0 19.0 0.00 0.00 0.00 20 1004.4
20260503204534 70 319 8.0 16.0 0.00 0.00 0.00 20 1004.6
20260503203033 70 298 10.0 21.0 0.00 0.00 0.00 20 1004.7
20260503201530 69 360 5.0 16.0 0.00 0.00 0.00 21 1004.8
20260503200027 69 336 10.0 17.0 0.00 0.00 0.00 20 1005.1
20260503194525 68 348 9.0 25.0 0.00 0.00 0.00 21 1005.5
20260503193021 68 356 9.0 17.0 0.00 0.00 0.00 21 1005.7
20260503191521 68 348 11.0 18.0 0.00 0.00 0.00 22 1005.9
20260503190022 68 331 7.0 16.0 0.00 0.00 0.00 23 1006.3
20260503184516 68 351 13.0 23.0 0.00 0.00 0.00 21 1006.3
20260503183014 67 331 8.0 15.0 0.00 0.00 0.00 21 1006.4
20260503181510 67 332 8.0 16.0 0.00 0.00 0.00 22 1006.7
20260503180017 66 351 9.0 16.0 0.00 0.00 0.00 22 1007.0
20260503174509 67 354 9.0 18.0 0.00 0.00 0.00 22 1007.1
20260503173007 66 344 10.0 18.0 0.00 0.00 0.00 23 1007.4
20260503171507 66 7 10.0 21.0 0.00 0.00 0.00 22 1007.4
20260503081630 46 187 2.0 8.0 0.00 0.00 0.00 65 1010.1
20260503080112 47 187 5.0 8.0 0.00 0.00 0.00 65 1010.2
20260503071554 49 288 7.0 9.0 0.00 0.00 0.00 61 1010.3
20260503054547 47 293 6.0 9.0 0.00 0.00 0.00 63 1010.5
20260503053038 48 296 5.0 9.0 0.00 0.00 0.00 62 1010.6